Location: Zagreb
(45.8150°N, 15.9819°E)
Time: 13:26:50
(UTC+02:00)

STARLINK-1713 - Pass Details

Date: 20 September 2020
Orbit: 379 x 380 km, 53.0° (Epoch: 20 October)

Event Time Altitude Azimuth Distance (km) Brightness Sun altitude
Exits shadow 05:54:38 - 300° (WNW) 1,599 5.5 -8.8°
Reaches altitude 10° 05:55:15 10° 306° (NW) 1,396 5.3 -8.7°
Maximum altitude 05:57:43 21° 358° (N) 922 4.9 -8.3°
Drops below altitude 10° 06:00:11 10° 51° (NE) 1,396 6.8 -7.9°
Sets 06:02:33 0° 68° (ENE) 2,249 8.7 -7.5°
